EW5676 Weather Reports


Display with metric or nautical units.
time (UTC)temp
F
wind
direction
speed
MPH
gust
MPH
rain 1hr
in
rain 24hr
in
rain mn
in
humidity
%
barometer
mb
20260906234547 66 0 0.0 0.0 0.00 0.00 0.00 84 1022.0
20260906233647 67 0 0.0 0.0 0.00 0.00 0.00 83 1022.1
20260906232748 67 0 0.0 0.0 0.00 0.00 0.00 82 1022.0
20260906231847 68 0 0.0 0.0 0.00 0.00 0.00 82 1022.1
20260906230947 69 0 0.0 0.0 0.00 0.00 0.00 79 1022.1
20260906225147 71 0 0.0 0.0 0.00 0.00 0.00 73 1021.9
20260906224248 71 54 0.0 1.0 0.00 0.00 0.00 73 1021.9
20260906223347 70 61 1.0 3.0 0.00 0.00 0.00 73 1022.0
20260906221547 70 0 0.0 0.0 0.00 0.00 0.00 76 1021.7
20260906220647 69 0 0.0 0.0 0.00 0.00 0.00 80 1021.7
20260906215747 69 0 0.0 0.0 0.00 0.00 0.00 80 1021.6
20260906214847 68 0 0.0 0.0 0.00 0.00 0.00 80 1021.6
20260906213947 69 0 0.0 0.0 0.00 0.00 0.00 77 1021.6
20260906213048 69 0 0.0 0.0 0.00 0.00 0.00 75 1021.7
20260906212147 69 0 0.0 0.0 0.00 0.00 0.00 73 1021.6
20260906210347 69 75 1.0 3.0 0.00 0.00 0.00 72 1021.6
20260906205448 69 77 2.0 5.0 0.00 0.00 0.00 75 1021.5
20260906204547 69 0 0.0 0.0 0.00 0.00 0.00 76 1021.5
20260906203647 69 0 0.0 0.0 0.00 0.00 0.00 75 1021.5
20260906202747 69 67 1.0 2.0 0.00 0.00 0.00 73 1021.3
20260906201847 69 77 2.0 3.0 0.00 0.00 0.00 73 1021.2
20260906200047 69 43 1.0 2.0 0.00 0.00 0.00 74 1021.3
20260906195147 69 66 2.0 4.0 0.00 0.00 0.00 75 1021.2
20260906194247 69 57 2.0 7.0 0.00 0.00 0.00 75 1021.2
20260906193347 69 20 2.0 6.0 0.00 0.00 0.00 74 1021.2
20260906192447 69 27 4.0 9.0 0.00 0.00 0.00 73 1021.3
20260906190647 71 3 3.0 7.0 0.00 0.00 0.00 69 1021.2
20260906184848 71 339 3.0 7.0 0.00 0.00 0.00 67 1021.1
20260906183947 71 61 3.0 6.0 0.00 0.00 0.00 69 1021.2
20260906183048 72 37 2.0 8.0 0.00 0.00 0.00 67 1021.2
20260906182148 71 93 2.0 7.0 0.00 0.00 0.00 69 1021.1
20260906175447 70 18 4.0 9.0 0.00 0.00 0.00 68 1021.2
20260906174547 70 36 4.0 11.0 0.00 0.00 0.00 69 1021.2
20260906173647 70 32 5.0 11.0 0.00 0.00 0.00 72 1021.4
20260906172747 69 59 5.0 12.0 0.00 0.00 0.00 72 1021.4
20260906170948 69 33 4.0 8.0 0.00 0.00 0.00 73 1021.4
20260906170048 69 32 3.0 7.0 0.00 0.00 0.00 75 1021.6
20260906165147 69 44 5.0 9.0 0.00 0.00 0.00 77 1021.7
20260906164247 68 36 5.0 13.0 0.00 0.00 0.00 77 1021.7
20260906163347 68 38 5.0 13.0 0.00 0.00 0.00 80 1021.8
20260906162447 68 32 4.0 13.0 0.00 0.00 0.00 78 1021.8
20260906161547 68 44 4.0 8.0 0.00 0.00 0.00 80 1021.7
20260906160647 67 53 4.0 7.0 0.00 0.00 0.00 81 1021.6
20260906153947 67 59 6.0 10.0 0.00 0.00 0.00 82 1021.7
20260906153047 66 40 6.0 12.0 0.00 0.00 0.00 82 1021.8
20260906152147 66 53 6.0 13.0 0.00 0.00 0.00 82 1021.8
20260906151248 66 52 5.0 10.0 0.00 0.00 0.00 83 1021.7
20260906150348 66 50 5.0 11.0 0.00 0.00 0.00 83 1021.8
20260906145448 66 55 5.0 9.0 0.00 0.00 0.00 83 1021.8
20260906144548 66 62 5.0 9.0 0.00 0.00 0.00 83 1021.7
20260906143647 66 58 5.0 10.0 0.00 0.00 0.00 84 1021.5
20260906142747 66 55 5.0 10.0 0.00 0.00 0.00 83 1021.6
20260906141848 66 59 5.0 9.0 0.00 0.00 0.00 84 1021.5
20260906140048 66 51 3.0 9.0 0.00 0.00 0.00 83 1021.5
20260906135147 67 65 2.0 5.0 0.00 0.00 0.00 84 1021.4
20260906134248 66 76 2.0 4.0 0.00 0.00 0.00 84 1021.3
20260906131547 66 48 4.0 7.0 0.00 0.00 0.00 84 1021.3
20260906130647 66 46 3.0 7.0 0.00 0.00 0.00 84 1021.1
20260906125747 66 62 1.0 5.0 0.00 0.00 0.00 84 1021.0
20260906124847 66 48 1.0 3.0 0.00 0.00 0.00 84 1021.1
20260906123947 66 48 3.0 6.0 0.00 0.00 0.00 83 1021.0
20260906123048 67 59 3.0 6.0 0.00 0.00 0.00 84 1020.8
20260906122147 67 59 3.0 7.0 0.00 0.00 0.00 84 1020.9
20260906121248 67 56 3.0 7.0 0.00 0.00 0.00 84 1020.7
20260906120348 66 53 2.0 5.0 0.00 0.00 0.00 85 1020.6
20260906115448 66 58 1.0 5.0 0.00 0.00 0.00 87 1020.4
20260906114547 64 40 0.0 3.0 0.00 0.00 0.00 90 1020.3
20260906113647 63 28 0.0 3.0 0.00 0.00 0.00 91 1020.3
20260906112747 62 22 1.0 4.0 0.00 0.00 0.00 92 1020.1
20260906111847 61 147 0.0 1.0 0.00 0.00 0.00 93 1020.2
20260906110047 60 0 0.0 0.0 0.00 0.00 0.00 92 1020.0
20260906104247 60 0 0.0 0.0 0.00 0.00 0.00 91 1019.6
20260906103347 60 0 0.0 0.0 0.00 0.00 0.00 91 1019.4
20260906102448 61 0 0.0 0.0 0.00 0.00 0.00 90 1019.3
20260906101548 62 0 0.0 0.0 0.00 0.00 0.00 89 1019.4
20260906095747 62 132 0.0 2.0 0.00 0.00 0.00 87 1019.2
20260906094848 62 0 0.0 0.0 0.00 0.00 0.00 87 1019.3
20260906093947 62 63 0.0 1.0 0.00 0.00 0.00 87 1019.1
20260906093048 62 62 0.0 2.0 0.00 0.00 0.00 87 1019.1
20260906091247 62 0 0.0 0.0 0.00 0.00 0.00 87 1018.7
20260906090347 62 0 0.0 0.0 0.00 0.00 0.00 87 1018.6
20260906085447 62 0 0.0 0.0 0.00 0.00 0.00 88 1018.6
20260906084547 62 0 0.0 0.0 0.00 0.00 0.00 87 1018.7
20260906082747 62 0 0.0 0.0 0.00 0.00 0.00 86 1018.5
20260906080947 62 72 0.0 2.0 0.00 0.00 0.00 87 1018.5
20260906080047 62 78 1.0 2.0 0.00 0.00 0.00 88 1018.5
20260906075148 62 71 1.0 4.0 0.00 0.00 0.00 87 1018.6
20260906073347 63 78 2.0 5.0 0.00 0.00 0.00 86 1018.4
20260906072447 63 85 2.0 4.0 0.00 0.00 0.00 86 1018.4
20260906071547 63 84 2.0 6.0 0.00 0.00 0.00 86 1018.3
20260906070648 63 85 3.0 6.0 0.00 0.00 0.00 87 1018.3
20260906065747 63 87 3.0 7.0 0.00 0.00 0.00 88 1018.3
20260906064847 63 76 4.0 7.0 0.00 0.00 0.00 89 1018.4
20260906063947 63 65 3.0 6.0 0.00 0.00 0.00 90 1018.5
20260906062147 64 70 2.0 4.0 0.00 0.00 0.00 87 1018.7
20260906061247 64 66 2.0 5.0 0.00 0.00 0.00 86 1018.7
20260906060347 64 68 3.0 6.0 0.00 0.00 0.00 86 1018.8
20260906055447 64 79 3.0 7.0 0.00 0.00 0.00 87 1018.7
20260906054547 65 67 3.0 7.0 0.00 0.00 0.00 88 1018.7
20260906053647 65 95 2.0 5.0 0.00 0.00 0.00 89 1018.6
20260906052747 65 101 3.0 7.0 0.00 0.00 0.00 90 1018.6
20260906051847 65 102 4.0 7.0 0.00 0.00 0.00 90 1018.6
20260906050947 65 114 2.0 4.0 0.00 0.00 0.00 91 1018.8
20260906045147 65 103 3.0 5.0 0.00 0.00 0.00 92 1018.8
20260906044247 65 113 2.0 5.0 0.00 0.00 0.00 92 1018.7
20260906043347 65 108 2.0 3.0 0.00 0.00 0.00 92 1018.7
20260906042448 65 117 1.0 3.0 0.00 0.00 0.00 92 1018.7
20260906041547 65 108 1.0 3.0 0.00 0.00 0.00 92 1018.8
20260906040647 65 99 3.0 6.0 0.00 0.00 0.00 91 1018.8
20260906035747 66 114 3.0 6.0 0.00 0.00 0.00 90 1018.6
20260906034848 66 80 3.0 6.0 0.00 0.00 0.00 90 1018.7
20260906033947 66 89 4.0 7.0 0.00 0.00 0.00 89 1018.6
20260906033048 66 96 3.0 5.0 0.00 0.00 0.00 89 1018.4
20260906032147 66 99 5.0 9.0 0.00 0.00 0.00 89 1018.2
20260906030347 66 85 3.0 6.0 0.00 0.00 0.00 89 1018.3
20260906025448 67 91 4.0 7.0 0.00 0.00 0.00 89 1018.3
20260906023648 67 100 4.0 7.0 0.00 0.00 0.00 89 1018.2
20260906022747 67 100 5.0 7.0 0.00 0.00 0.00 88 1018.1
20260906021847 67 99 3.0 5.0 0.00 0.00 0.00 88 1018.1
20260906020947 67 92 3.0 6.0 0.00 0.00 0.00 88 1018.1
20260906020048 68 90 3.0 5.0 0.00 0.00 0.00 87 1018.0
20260906014247 68 98 3.0 7.0 0.00 0.00 0.00 86 1018.0
20260906013348 68 91 4.0 7.0 0.00 0.00 0.00 86 1017.9
20260906012447 69 91 4.0 8.0 0.00 0.00 0.00 85 1017.7
20260906011548 69 95 5.0 10.0 0.00 0.00 0.00 85 1017.7
20260906010649 69 90 6.0 12.0 0.00 0.00 0.00 84 1017.7
20260906005747 69 90 6.0 11.0 0.00 0.00 0.00 83 1017.7
20260906004847 70 89 5.0 9.0 0.00 0.00 0.00 83 1017.6
20260906003947 70 66 2.0 7.0 0.00 0.00 0.00 83 1017.3
20260906003047 70 69 2.0 4.0 0.00 0.00 0.00 83 1017.1
20260906002147 70 64 3.0 6.0 0.00 0.00 0.00 82 1016.9
20260906000348 71 67 3.0 6.0 0.00 0.00 0.00 81 1016.7
20260905235448 71 55 3.0 6.0 0.00 0.00 0.00 79 1016.7